Погода в Баткене

Киргизия     40°03′37″N   70°49′10″E
В апреле 2022 года жителям России запретили посещать сайт meteo.paraplan.net по решению Генеральной прокуратуры. Аудитория сайта уменьшилась в 10 раз. Владельцы сайта не видят смысла в поддержке погодного сервера в таких условиях. Сайт будет закрыт в октябре.
темп.,
°C
ветер,
м/с
пор.,
м/с
влажн.,
%
обл.,
%
осадки,
мм/ч
давл.,
гПа
погр.,
м
26 сентября, пн
пн2600:00+16ю22290 0.0 101512
03:00+15ююв11310 0.0 101511
06:00+14ю11330 0.0 101611
09:00+21юв11220 0.0 1017134
12:00+24с31170 0.0 10161400
15:00+26с33150 0.0 10141891
18:00+25сз33130 0.0 10151389
21:00+18ююз33170 0.0 101718
27 сентября, вт
вт2700:00+16ююз22210 0.0 101715
03:00+15ююз11240 0.0 101712
06:00+13ююз22270 0.0 101713
09:00+19з11210 0.0 1017172
12:00+22с32250 0.0 10161247
15:00+23с43230 0.0 10141601
18:00+23с21220 0.0 10141094
21:00+16юз22330 0.0 101517
28 сентября, ср
ср2800:00+14зюз12380 0.0 101511
03:00+13юв11400 0.0 101410
06:00+12в11420 0.0 101511
09:00+17ссв11290 0.0 1015233
12:00+20с32210 0.0 1014981
15:00+22ссз321895 0.0 10121262
18:00+22с111954 0.0 10121019
21:00+16ююз22275 0.0 101312
29 сентября, чт
чт2900:00+14ю11300 0.0 101311
03:00+12св11350 0.0 101311
06:00+11юв00370 0.0 101311
09:00+17с11265 0.0 1013147
12:00+21ссз321914 0.0 1012901
15:00+23ссз3315100 0.0 10101371
18:00+22ссз1117100 0.0 1010540
21:00+16ююз112494 0.0 101211
30 сентября, пт
пт3000:00+16св1124100 0.0 101111
03:00+14ссз112723 0.0 101111
06:00+13ю2229100 0.0 101211
09:00+18зюз112196 0.0 101279
12:00+22сз3417100 0.0 10121590
15:00+23сз5415100 0.0 10111768
18:00+20зсз571992 0.0 1012828
21:00+15ююз1127100 0.0 101411